Location: Arcones
(41.1182°N, 3.7238°W)
Time: 16:35:47
(UTC+00:00)

Cosmos 2058 Rocket - Pass Details

Date: 21 March 2026
Orbit: 604 x 632 km, 82.5° (Epoch: 18 April)

Event Time Altitude Azimuth Distance (km) Brightness Sun altitude
Rises 05:21:47 0° 172° (S) 2,893 6.5 -11.1°
Reaches altitude 10° 05:24:03 10° 167° (SSE) 1,995 5.7 -10.7°
Maximum altitude 05:28:18 48° 93° (E) 823 4.2 -9.9°
Drops below altitude 10° 05:32:37 10° 19° (NNE) 2,020 6.1 -9.1°
Sets 05:34:55 0° 14° (NNE) 2,934 6.8 -8.7°
